When you browse on this site, cookies collect data to enhance your experience and personalize the content and advertising you see.
Visit our Privacy Policy to learn more. By continuing to use the site, you agree to this use of cookies and data.
  • In Hungary
  • List of Countries
  • For 7 days
  • Water Temperature
  • Weather Map
  • News
  • Weather Widgets
  • user-avatar
    Login

    Hourly Weather Baran

    Today, 24 February, Monday

    Time Temperature Precipitation Wind Pressure Humidity
    00:00 +19°C° 0 mm 2 mps 739 mmHg 50%
    01:00 +18°C° 0 mm 2 mps 738 mmHg 53%
    02:00 +18°C° 0 mm 2 mps 738 mmHg 56%
    03:00 +17°C° 0 mm 2 mps 738 mmHg 59%
    04:00 +18°C° 0 mm 1 mps 738 mmHg 62%
    05:00 +16°C° 0 mm 1 mps 738 mmHg 68%
    06:00 +19°C° 0 mm 1 mps 738 mmHg 64%
    07:00 +20°C° 0 mm 1 mps 739 mmHg 61%
    08:00 +21°C° 0 mm 1 mps 739 mmHg 57%
    09:00 +23°C° 0 mm 1 mps 739 mmHg 51%
    10:00 +25°C° 0 mm 1 mps 739 mmHg 44%
    11:00 +25°C° 0 mm 0 mps 739 mmHg 39%
    12:00 +28°C° 0 mm 1 mps 739 mmHg 34%
    13:00 +29°C° 0 mm 2 mps 738 mmHg 30%
    14:00 +30°C° 0 mm 2 mps 737 mmHg 26%
    15:00 +29°C° 0 mm 2 mps 736 mmHg 25%
    16:00 +29°C° 0 mm 2 mps 736 mmHg 25%
    17:00 +28°C° 0 mm 2 mps 736 mmHg 29%
    18:00 +27°C° 0 mm 2 mps 737 mmHg 30%
    19:00 +26°C° 0 mm 2 mps 737 mmHg 31%
    20:00 +25°C° 0 mm 2 mps 737 mmHg 32%
    21:00 +24°C° 0 mm 2 mps 737 mmHg 33%
    22:00 +24°C° 0 mm 2 mps 737 mmHg 33%
    23:00 +23°C° 0 mm 2 mps 738 mmHg 34%

    Tomorrow, 25 February, Tuesday

    Time Temperature Precipitation Wind Pressure Humidity
    00:00 +21°C° 0 mm 2 mps 737 mmHg 39%
    01:00 +20°C° 0 mm 2 mps 737 mmHg 44%
    02:00 +19°C° 0 mm 2 mps 737 mmHg 49%
    03:00 +18°C° 0 mm 2 mps 736 mmHg 51%
    04:00 +19°C° 0 mm 1 mps 736 mmHg 54%
    05:00 +18°C° 0 mm 1 mps 736 mmHg 57%
    06:00 +19°C° 0 mm 1 mps 737 mmHg 54%
    07:00 +20°C° 0 mm 1 mps 738 mmHg 50%
    08:00 +20°C° 0 mm 0 mps 738 mmHg 47%
    09:00 +24°C° 0 mm 1 mps 739 mmHg 40%
    10:00 +26°C° 0 mm 2 mps 739 mmHg 33%
    11:00 +28°C° 0 mm 2 mps 739 mmHg 25%
    12:00 +29°C° 0 mm 3 mps 738 mmHg 22%
    13:00 +30°C° 0 mm 3 mps 737 mmHg 19%
    14:00 +31°C° 0 mm 3 mps 736 mmHg 16%
    15:00 +32°C° 0 mm 4 mps 736 mmHg 17%
    16:00 +30°C° 0 mm 4 mps 736 mmHg 17%
    17:00 +30°C° 0 mm 4 mps 736 mmHg 17%
    18:00 +28°C° 0 mm 3 mps 736 mmHg 20%
    19:00 +25°C° 0 mm 2 mps 737 mmHg 24%
    20:00 +23°C° 0 mm 1 mps 737 mmHg 27%
    21:00 +23°C° 0 mm 1 mps 737 mmHg 27%
    22:00 +22°C° 0 mm 1 mps 738 mmHg 28%
    23:00 +22°C° 0 mm 1 mps 738 mmHg 29%

    Day after tomorrow, 26 February, Wednesday

    Time Temperature Precipitation Wind Pressure Humidity
    00:00 +21°C° 0 mm 1 mps 738 mmHg 31%
    01:00 +20°C° 0 mm 1 mps 737 mmHg 32%
    02:00 +20°C° 0 mm 1 mps 737 mmHg 34%
    03:00 +19°C° 0 mm 1 mps 737 mmHg 34%
    04:00 +19°C° 0 mm 1 mps 737 mmHg 35%
    05:00 +19°C° 0 mm 1 mps 736 mmHg 36%
    06:00 +19°C° 0 mm 2 mps 737 mmHg 34%
    07:00 +20°C° 0 mm 2 mps 738 mmHg 31%
    08:00 +22°C° 0 mm 3 mps 739 mmHg 29%
    09:00 +25°C° 0 mm 3 mps 739 mmHg 25%
    10:00 +28°C° 0 mm 3 mps 739 mmHg 21%
    11:00 +31°C° 0 mm 3 mps 739 mmHg 17%
    12:00 +33°C° 0 mm 3 mps 738 mmHg 16%
    13:00 +32°C° 0 mm 2 mps 737 mmHg 15%
    14:00 +34°C° 0 mm 2 mps 736 mmHg 14%
    15:00 +34°C° 0 mm 2 mps 736 mmHg 15%
    16:00 +32°C° 0 mm 2 mps 736 mmHg 15%
    17:00 +32°C° 0 mm 2 mps 736 mmHg 16%
    18:00 +30°C° 0 mm 1 mps 736 mmHg 18%
    19:00 +27°C° 0 mm 1 mps 737 mmHg 21%
    20:00 +23°C° 0 mm 0 mps 737 mmHg 23%
    21:00 +24°C° 0 mm 1 mps 737 mmHg 24%
    22:00 +24°C° 0 mm 1 mps 737 mmHg 24%
    23:00 +24°C° 0 mm 2 mps 737 mmHg 25%

    27 February, Thursday

    Time Temperature Precipitation Wind Pressure Humidity
    00:00 +23°C° 0 mm 1 mps 737 mmHg 26%
    01:00 +22°C° 0 mm 1 mps 736 mmHg 27%
    02:00 +22°C° 0 mm 1 mps 736 mmHg 28%
    03:00 +21°C° 0 mm 1 mps 736 mmHg 28%
    04:00 +21°C° 0 mm 1 mps 736 mmHg 29%
    05:00 +21°C° 0 mm 1 mps 736 mmHg 30%
    06:00 +22°C° 0 mm 1 mps 737 mmHg 28%
    07:00 +23°C° 0 mm 1 mps 737 mmHg 27%
    08:00 +24°C° 0 mm 1 mps 738 mmHg 25%
    09:00 +27°C° 0 mm 2 mps 738 mmHg 22%
    10:00 +30°C° 0 mm 2 mps 738 mmHg 19%
    11:00 +32°C° 0 mm 2 mps 738 mmHg 16%
    12:00 +34°C° 0 mm 3 mps 737 mmHg 15%
    13:00 +35°C° 0 mm 3 mps 736 mmHg 14%
    14:00 +36°C° 0 mm 3 mps 735 mmHg 13%
    15:00 +36°C° 0 mm 3 mps 735 mmHg 14%
    16:00 +35°C° 0 mm 2 mps 735 mmHg 14%
    17:00 +35°C° 0 mm 2 mps 735 mmHg 15%
    18:00 +31°C° 0 mm 2 mps 735 mmHg 17%
    19:00 +29°C° 0 mm 2 mps 736 mmHg 19%
    20:00 +27°C° 0 mm 2 mps 736 mmHg 21%
    21:00 +26°C° 0 mm 2 mps 736 mmHg 22%
    22:00 +26°C° 0 mm 3 mps 736 mmHg 23%
    23:00 +25°C° 0 mm 3 mps 736 mmHg 24%

    28 February, Friday

    Time Temperature Precipitation Wind Pressure Humidity
    00:00 +24°C° 0 mm 3 mps 736 mmHg 25%
    01:00 +24°C° 0 mm 2 mps 735 mmHg 27%
    02:00 +23°C° 0 mm 2 mps 735 mmHg 28%
    03:00 +21°C° 0 mm 2 mps 735 mmHg 29%
    04:00 +21°C° 0 mm 2 mps 735 mmHg 30%
    05:00 +21°C° 0 mm 1 mps 735 mmHg 32%
    06:00 +21°C° 0 mm 2 mps 735 mmHg 30%
    07:00 +24°C° 0 mm 2 mps 736 mmHg 28%
    08:00 +25°C° 0 mm 2 mps 736 mmHg 27%
    09:00 +28°C° 0 mm 2 mps 736 mmHg 23%
    10:00 +30°C° 0 mm 2 mps 736 mmHg 20%
    11:00 +34°C° 0 mm 3 mps 736 mmHg 16%
    12:00 +35°C° 0 mm 2 mps 736 mmHg 15%
    13:00 +36°C° 0 mm 2 mps 735 mmHg 14%
    14:00 +37°C° 0 mm 2 mps 734 mmHg 12%
    15:00 +36°C° 0 mm 1 mps 734 mmHg 13%
    16:00 +35°C° 0 mm 1 mps 733 mmHg 13%
    17:00 +35°C° 0 mm 1 mps 733 mmHg 14%
    18:00 +34°C° 0 mm 2 mps 733 mmHg 16%
    19:00 +30°C° 0 mm 3 mps 734 mmHg 17%
    20:00 +28°C° 0 mm 4 mps 734 mmHg 19%
    21:00 +28°C° 0 mm 4 mps 734 mmHg 21%
    22:00 +27°C° 0 mm 5 mps 734 mmHg 23%
    23:00 +27°C° 0 mm 5 mps 734 mmHg 25%

    29 February, Saturday

    Time Temperature Precipitation Wind Pressure Humidity
    00:00 +26°C° 0 mm 5 mps 734 mmHg 27%
    01:00 +25°C° 0 mm 5 mps 733 mmHg 30%
    02:00 +23°C° 0 mm 5 mps 733 mmHg 32%
    03:00 +23°C° 0 mm 4 mps 733 mmHg 33%
    04:00 +22°C° 0 mm 3 mps 733 mmHg 35%
    05:00 +23°C° 0 mm 2 mps 733 mmHg 36%
    06:00 +24°C° 0 mm 2 mps 733 mmHg 34%
    07:00 +25°C° 0 mm 2 mps 734 mmHg 31%
    08:00 +26°C° 0 mm 2 mps 735 mmHg 29%
    09:00 +29°C° 0 mm 2 mps 735 mmHg 24%
    10:00 +31°C° 0 mm 3 mps 735 mmHg 19%
    11:00 +35°C° 0 mm 3 mps 734 mmHg 14%
    12:00 +36°C° 0 mm 3 mps 734 mmHg 13%
    13:00 +37°C° 0 mm 3 mps 733 mmHg 12%
    14:00 +38°C° 0 mm 3 mps 732 mmHg 11%
    15:00 +38°C° 0 mm 4 mps 732 mmHg 11%
    16:00 +37°C° 0 mm 4 mps 732 mmHg 12%
    17:00 +37°C° 0 mm 4 mps 732 mmHg 12%
    18:00 +34°C° 0 mm 3 mps 732 mmHg 15%
    19:00 +31°C° 0 mm 2 mps 733 mmHg 17%
    20:00 +28°C° 0 mm 1 mps 733 mmHg 20%
    21:00 +27°C° 0 mm 1 mps 733 mmHg 21%
    22:00 +27°C° 0 mm 2 mps 734 mmHg 21%
    23:00 +26°C° 0 mm 2 mps 734 mmHg 22%
    Show more